CAPE
0 0 8 258 2 0 23 185 216 282 596 668 624 324 254 251 1141 1686 2077 2148 2210 2304 2376 2360 2356 2410 2242 2381 2240 2196 2483 2704 2742 2595 2498 2623 2628 2650 2515 2453 2464 2312
5 4 67 188 161 47 0 64 164 398 604 736 671 403 257 282 807 1612 1993 2193 2222 2212 2336 2357 2327 2418 2110 2344 2603 2351 2449 2509 2518 2586 2464 2545 2662 2681 2593 2551 2516 2376
77 13 5 53 223 157 55 13 78 213 696 804 712 632 589 488 487 1427 1735 2126 2255 2218 2283 2461 2370 2352 2121 2177 2513 2486 2498 2373 2232 2426 2490 2481 2594 2610 2567 2514 2479 2596
167 59 45 10 116 248 194 90 20 55 314 898 850 716 624 743 733 908 1597 2416 2108 2204 2204 2481 2397 2328 2348 2395 2383 2442 2588 2548 2333 2429 2472 2506 2558 2567 2532 2540 2576 2553
327 145 114 78 17 162 332 273 92 41 58 569 933 826 726 885 1015 945 1061 1829 2052 2094 2126 2322 2392 2256 2355 2462 2467 2364 2463 2527 2552 2549 2557 2447 2298 2323 2373 2382 2445 2467
505 314 206 176 92 59 205 387 253 134 66 100 689 929 808 861 1060 1124 1126 1353 1932 2041 2091 2134 2430 2349 2357 2410 2546 2430 2476 2492 2520 2630 2509 2585 2729 2589 2397 2447 2467 2591
713 521 322 245 215 107 129 309 401 341 188 107 305 856 936 823 996 1163 1330 1340 1662 1928 2013 2106 2230 2467 2469 2436 2585 2499 2464 2555 2518 2632 2601 2471 2656 2848 2652 2481 2516 2546
832 735 557 354 296 201 175 177 460 648 477 321 292 593 1001 956 715 781 1062 1400 1586 1758 1876 2007 2140 2315 2534 2520 2569 2651 2580 2604 2663 2669 2670 2570 2565 2826 2887 2671 2582 2556
907 821 708 536 363 290 223 177 187 606 846 678 530 559 956 1131 993 763 658 826 1491 1714 1758 1872 2065 2249 2479 2600 2583 2672 2696 2664 2650 2691 2732 2610 2563 2658 2848 2907 2834 2781
1018 910 797 673 499 353 293 251 190 230 804 988 846 756 850 1187 1226 1060 882 711 1060 1580 1728 1816 1993 2162 2408 2608 2646 2673 2725 2712 2657 2648 2712 2708 2564 2535 2587 2716 2871 2910
1090 1010 910 793 653 471 370 340 325 267 473 1019 1090 996 917 1025 1315 1291 1160 982 929 1358 1665 1789 1948 2092 2254 2515 2657 2687 2692 2674 2634 2628 2687 2717 2648 2562 2801 2524 2572 2666
1193 1075 1019 928 808 669 511 451 466 444 439 836 1173 1186 1112 999 1126 1369 1362 1241 1119 1173 1528 1742 1885 2040 2147 2308 2530 2662 2695 2648 2560 2548 2589 2646 2628 2603 2604 2613 2499 2497
1409 1312 1164 1056 998 884 732 632 630 655 638 732 1112 1253 1250 1176 1061 1202 1433 1440 1355 1264 1315 1606 1789 1944 2087 2156 2271 2464 2618 2657 2587 2517 2491 2492 2594 2680 2693 2672 2670 2587
1641 1530 1401 1203 1131 1060 952 836 802 853 885 892 1090 1259 1290 1289 1212 1118 1229 1453 1491 1427 1298 1438 1623 1765 1947 2089 2140 2210 2385 2532 2555 2491 2458 2396 2361 2482 2624 2644 2596 2644
2012 1856 1682 1505 1349 1206 1119 1014 934 988 1064 1092 1194 1320 1335 1329 1312 1224 1132 1240 1467 1491 1412 1438 1538 1628 1730 1892 2026 2089 2123 2279 2410 2430 2418 2411 2345 2257 2279 2410 2525 2578
2206 2110 1990 1858 1683 1502 1316 1137 1022 1033 1176 1278 1322 1412 1433 1378 1353 1331 1231 1151 1312 1532 1550 1542 1589 1621 1750 1796 1890 1944 1974 2070 2256 2358 2391 2396 2400 2367 2292 2257 2312 2470
2328 2259 2168 2060 1909 1761 1575 1358 1149 1065 1197 1365 1461 1529 1583 1524 1410 1394 1363 1271 1190 1477 1639 1672 1705 1692 1706 1787 1886 1917 1900 1937 2076 2258 2342 2378 2350 2326 2325 2338 2354 2368
2484 2411 2343 2249 2139 2014 1835 1591 1310 1100 1187 1362 1526 1609 1674 1687 1570 1452 1421 1389 1295 1331 1591 1720 1785 1802 1784 1793 1872 1947 1938 1892 1917 2026 2194 2296 2316 2292 2248 2217 2271 2346
2689 2638 2590 2515 2421 2291 2104 1828 1490 1192 1193 1325 1522 1639 1675 1727 1702 1594 1470 1440 1379 1302 1411 1656 1777 1837 1871 1837 1837 1906 1962 1928 1827 1826 1941 2112 2226 2293 2310 2270 2213 2228
2933 2890 2833 2780 2695 2538 2299 2003 1686 1382 1245 1329 1520 1694 1724 1720 1715 1654 1541 1438 1411 1378 1306 1451 1650 1760 1869 1902 1873 1860 1906 1927 1844 1746 1760 1903 2063 2172 2238 2284 2307 2283
3110 3082 3042 2993 2900 2780 2574 2204 1829 1534 1296 1396 1508 1707 1810 1789 1749 1692 1596 1486 1427 1414 1376 1319 1470 1632 1784 1911 1949 1914 1875 1894 1868 1776 1724 1769 1908 2055 2144 2186 2232 2302
3218 3220 3196 3159 3088 2997 2845 2593 2154 1712 1455 1482 1563 1684 1844 1877 1854 1765 1666 1566 1451 1406 1446 1425 1452 1517 1645 1802 1948 1991 1953 1852 1815 1774 1746 1745 1790 1917 2068 2140 2160 2164
3334 3316 3298 3275 3240 3170 3070 2887 2581 2081 1654 1532 1624 1691 1834 1960 1973 1925 1827 1671 1497 1393 1500 1594 1632 1615 1619 1658 1775 1947 2000 1984 1884 1805 1788 1813 1803 1790 1868 2035 2160 2169
3425 3408 3372 3355 3316 3268 3187 3079 2899 2618 2046 1594 1692 1732 1808 1967 2033 2000 1927 1801 1619 1425 1482 1614 1731 1845 1822 1764 1725 1769 1858 1918 1970 1944 1907 1910 1932 1907 1854 1831 1994 2788
3462 3458 3410 3383 3364 3319 3261 3188 3064 2892 2588 1973 1732 1778 1822 1928 2092 2102 2061 1966 1837 1644 1567 1630 1726 1933 2032 2021 1929 1848 1820 1818 1826 1854 1893 1937 1976 2001 1996 1954 1889 2401
3492 3481 3461 3412 3386 3353 3311 3247 3150 2984 2763 2434 1840 1831 1871 1907 2055 2150 2155 2105 2032 1941 1782 1723 1776 1879 2086 2251 2224 2091 1974 1905 1852 1880 1928 1992 2028 2069 2082 2084 2074 2068
Wind_Speed
nan nan nan 6 nan nan nan 4 4 2 1 2 3 4 5 6 5 6 7 6 6 6 7 7 7 8 7 7 7 7 7 9 8 6 6 5 6 7 8 8 8 10
nan nan nan 6 6 nan nan nan 5 4 3 4 4 4 4 3 6 7 7 7 7 7 7 9 9 10 8 8 8 9 10 9 9 8 8 7 8 8 9 9 9 10
nan nan nan nan 3 2 nan nan nan 5 5 5 5 4 4 4 6 7 8 7 8 9 9 11 12 13 11 11 9 9 10 10 11 10 9 10 10 9 10 10 9 9
3 nan nan nan 3 2 2 nan nan nan 5 5 5 6 6 5 6 7 7 8 9 10 11 12 13 14 12 11 9 9 9 10 11 10 10 10 11 11 11 9 9 9
3 4 5 nan nan 3 3 3 nan nan nan 4 5 4 4 3 4 6 6 7 8 10 11 13 13 13 11 10 9 9 10 10 9 8 9 11 12 12 12 9 10 10
5 5 5 4 nan nan 3 2 1 2 nan nan 4 4 4 4 3 4 5 6 7 9 11 12 12 12 10 10 9 9 9 9 10 9 9 10 11 12 12 10 9 10
5 5 5 6 6 5 3 2 1 1 1 2 3 3 4 3 1 2 3 5 6 8 9 10 11 10 9 8 9 9 9 9 9 9 10 10 9 10 11 11 10 10
6 6 5 6 6 5 4 3 3 2 1 2 2 2 4 4 2 1 2 3 5 7 8 9 9 9 8 7 8 9 9 7 8 8 9 9 8 9 9 10 9 9
9 7 5 4 4 5 4 3 4 3 3 2 2 2 3 3 2 1 1 2 4 5 6 7 7 8 7 7 8 8 9 8 8 8 9 8 8 8 8 7 7 8
8 7 5 4 3 5 4 4 4 4 4 2 2 2 3 3 3 2 1 1 2 4 5 5 5 6 6 7 8 7 8 8 7 7 8 8 8 7 6 6 6 6
7 7 6 4 4 6 4 5 4 4 5 3 2 1 3 4 3 3 2 2 1 2 3 3 4 4 5 6 6 6 7 7 7 6 7 7 7 7 6 5 5 5
7 7 5 5 5 5 5 5 6 5 5 4 3 2 2 3 4 3 3 3 3 2 2 2 2 2 3 4 5 5 5 6 6 6 6 6 6 5 5 4 4 5
6 6 7 7 7 7 8 7 6 6 5 4 4 3 3 3 4 4 4 4 4 4 3 3 2 2 1 1 2 3 4 5 4 5 5 4 4 4 4 4 3 3
6 7 8 8 9 9 8 7 8 7 7 7 6 3 2 3 4 5 5 6 4 4 4 5 4 4 4 3 2 2 2 3 4 4 4 3 3 3 3 3 3 3
5 7 8 9 9 9 8 8 8 9 9 9 7 5 5 4 4 6 7 7 6 5 5 6 6 5 7 6 6 5 5 4 4 4 3 2 1 1 1 2 2 2
3 5 6 7 8 8 9 9 10 11 11 10 9 7 7 7 7 7 7 7 8 7 6 6 6 8 7 7 8 8 8 7 6 4 4 3 2 1 2 2 2 3
5 4 4 4 5 7 9 9 9 11 12 11 11 11 10 10 9 8 7 8 9 9 8 8 8 9 8 9 9 10 10 10 9 7 5 4 4 3 3 3 4 4
7 6 5 4 4 4 6 8 10 11 11 12 12 12 13 14 12 10 10 10 11 10 10 9 10 8 10 11 11 10 11 11 11 10 8 7 6 5 5 5 5 6
9 7 5 4 4 4 5 7 8 9 10 11 11 13 15 14 13 14 13 13 12 11 10 10 11 9 11 13 12 12 11 11 13 12 10 8 7 6 6 7 8 8
10 9 7 5 5 5 5 4 4 5 8 11 14 15 14 13 14 14 15 15 14 13 12 12 12 10 12 14 14 13 12 12 12 13 11 10 9 8 8 8 9 9
11 10 9 8 7 7 5 3 3 4 6 9 12 13 13 14 14 14 16 16 16 16 16 14 13 10 14 14 14 14 12 14 12 13 13 12 10 10 9 9 10 10
12 11 11 11 10 8 5 3 3 3 4 6 9 11 13 14 14 14 15 16 17 17 17 15 14 13 15 15 16 15 15 16 14 12 12 12 11 12 11 11 12 12
14 13 12 12 12 10 6 4 4 4 5 7 6 7 9 10 12 13 15 16 17 17 16 16 15 16 16 16 17 17 20 17 15 14 12 11 11 12 12 13 13 13
16 15 13 13 13 10 8 7 7 8 6 7 5 5 6 8 11 12 13 14 15 16 16 16 16 18 18 17 18 20 21 18 16 15 13 12 12 13 15 15 14 11
18 17 15 14 12 11 12 11 10 9 10 10 7 6 6 9 11 11 11 12 13 14 15 15 17 19 20 18 18 21 21 19 17 16 14 13 14 14 16 17 16 13
21 19 17 15 13 13 15 14 15 15 12 11 9 9 9 9 10 11 10 10 12 13 15 15 16 19 23 19 19 21 21 20 19 17 14 13 15 16 17 18 18 18
Wind_Direction
nan nan nan 194 nan nan nan 225 227 279 354 2 24 37 34 44 44 31 29 25 23 29 53 68 76 82 80 79 68 63 59 57 51 48 45 50 75 84 92 97 101 101
nan nan nan 198 206 nan nan nan 254 275 317 343 8 12 31 23 39 32 31 34 36 43 60 73 85 89 93 92 85 70 69 63 58 62 49 58 72 81 84 88 91 99
nan nan nan nan 208 237 nan nan nan 272 301 340 339 340 0 18 23 37 40 41 48 59 72 85 94 99 98 95 91 75 65 63 62 63 52 57 69 73 81 86 93 91
152 nan nan nan 192 221 255 nan nan nan 270 287 321 340 351 9 17 28 45 51 61 72 83 93 93 98 98 90 84 76 69 63 64 60 56 65 69 71 78 87 95 104
179 158 160 nan nan 192 220 253 nan nan nan 300 308 318 333 354 20 36 49 66 73 80 87 89 94 92 92 88 81 72 69 66 69 61 55 59 69 74 79 82 93 103
197 176 163 163 nan nan 208 231 283 306 nan nan 308 294 314 346 25 43 58 70 84 85 86 89 89 90 85 83 79 72 66 65 68 63 58 57 64 71 79 77 82 95
218 197 164 168 170 187 200 201 242 294 315 325 283 297 299 316 22 68 76 83 87 94 91 90 88 86 86 81 76 75 73 68 69 64 61 63 61 67 77 76 77 86
240 217 188 181 175 185 197 203 215 239 260 256 288 304 293 321 8 95 144 120 110 102 102 97 93 86 84 80 72 73 74 76 70 63 62 66 64 67 69 75 76 82
245 234 219 196 176 189 194 205 217 228 244 277 295 280 276 299 327 52 138 155 133 124 117 111 101 95 90 79 73 67 65 67 64 58 58 60 60 61 62 70 79 84
248 236 233 213 190 196 199 211 224 225 236 261 301 289 299 290 297 315 234 193 142 140 136 125 115 108 98 87 75 67 66 62 57 55 54 57 57 59 60 60 65 80
255 245 234 223 205 207 203 218 230 231 235 255 269 293 297 288 289 284 277 260 206 176 168 144 124 105 93 85 85 79 68 64 60 55 51 49 52 54 52 51 57 60
253 244 239 233 223 216 215 220 230 234 240 242 255 285 286 291 303 286 274 280 266 250 228 180 154 129 89 73 69 72 67 62 61 57 51 46 49 50 48 40 41 49
250 246 237 232 227 225 222 220 226 234 242 245 248 258 279 285 289 295 271 273 281 278 274 260 234 215 190 90 65 59 51 46 46 50 51 44 45 44 40 31 28 30
245 240 236 232 228 228 227 226 228 233 239 239 241 252 261 275 282 284 275 268 276 274 274 266 257 245 245 257 277 328 354 22 25 27 36 40 42 36 23 18 16 6
237 230 226 228 231 230 228 227 228 230 236 242 244 240 230 235 246 261 270 275 273 273 273 266 260 253 249 259 271 287 296 323 351 2 0 10 25 18 342 342 342 347
221 219 221 225 226 226 227 228 226 229 234 241 246 245 238 233 232 243 256 268 273 273 272 266 260 250 264 306 294 277 282 286 297 319 322 310 290 256 249 282 314 312
214 200 204 212 219 221 227 229 230 229 230 234 240 244 247 244 239 238 241 247 259 263 268 264 261 259 298 295 301 306 280 274 280 285 288 290 275 254 248 266 265 278
222 213 198 185 199 209 225 228 230 232 231 233 237 241 244 246 247 244 239 239 242 250 257 258 254 270 292 294 299 301 291 273 268 268 272 275 270 261 245 244 252 259
236 231 218 197 187 198 216 227 232 233 234 236 238 237 239 244 248 249 245 243 243 247 248 250 245 264 278 287 293 297 299 283 259 262 265 267 271 271 259 250 248 252
247 243 236 225 218 211 210 218 228 231 234 235 235 239 242 243 247 251 250 249 248 247 245 242 244 254 275 281 286 292 294 282 257 260 259 259 268 274 266 259 256 257
255 249 241 237 238 233 219 203 215 220 233 237 240 244 244 244 247 250 251 252 251 249 246 244 240 262 273 281 283 287 288 276 257 254 250 248 255 263 270 270 263 261
253 249 242 238 239 239 231 216 220 233 238 238 239 241 241 241 241 245 252 254 254 253 251 248 244 265 272 278 282 281 282 258 251 251 247 245 248 256 264 269 270 268
246 248 244 240 238 237 231 225 233 238 236 238 240 246 251 251 246 245 245 252 256 257 257 250 246 258 272 277 278 282 266 250 248 242 239 239 242 251 258 264 269 270
243 244 244 242 238 236 229 223 227 229 241 248 249 252 256 258 253 245 243 248 257 261 262 255 249 256 271 273 277 277 272 258 248 242 235 234 233 243 249 251 258 283
243 243 245 246 243 235 230 230 233 234 236 241 240 241 245 251 257 255 249 245 249 256 268 270 256 257 271 274 277 277 271 253 248 240 234 229 232 233 241 246 246 252
242 243 244 247 247 238 233 231 231 232 238 242 243 244 246 252 258 262 267 256 250 249 253 263 264 259 266 281 279 280 284 264 249 244 235 231 232 232 233 239 243 245